Regional Weather Roundup
Issued by NWS San Diego, CA

Home | Current Version | Previous Version | Text Only | Print | Product List | Glossary On
Versions: 1 2 3 4 5 6 7 8 9 10 11 12 13 14 15 16 17 18 19 20 21 22 23 24 25 26 27 28 29 30 31 32 33 34 35 36 37 38 39 40 41 42 43 44 45 46 47 48 49 50
000
ASUS46 KSGX 281011
RWRSGX

SAN DIEGO HOURLY WEATHER ROUNDUP
NATIONAL WEATHER SERVICE SAN DIEGO CA
300 AM PDT WED JUN 28 2017

NOTE: "FAIR" INDICATES FEW OR NO CLOUDS BELOW 12,000 FEET WITH NO
SIGNIFICANT WEATHER AND/OR OBSTRUCTIONS TO VISIBILITY.

CAZ042-043-060-061-PZZ750-775-281100-

GREATER SAN DIEGO AREA

CITY           SKY/WX    TMP DP  RH WIND       PRES   REMARKS
SAN DIEGO AP   CLOUDY    64  59  83 W5        29.88S
NATIONAL CITY    N/A     64  61  90 CALM      29.88S
CHULA VISTA      N/A     63  61  93 CALM      29.79S
IMPERIAL BEACH CLOUDY    63  59  87 W6        29.87F
BROWN FIELD    CLOUDY    61  61 100 CALM      29.87S FOG
MIRAMAR MCAS   CLOUDY    65  58  78 CALM      29.87S
MONTGOMERY FLD CLOUDY    63  59  87 W5        29.87F
GILLESPIE FLD  FAIR      61  59  94 NW3       29.87S

$$

NORTH SAN DIEGO COUNTY

CITY           SKY/WX    TMP DP  RH WIND       PRES   REMARKS
CAMP PENDLETON CLOUDY    61  61 100 SW5       29.86F FOG
OCEANSIDE AP   CLOUDY    64  60  87 SW5       29.86S
OCEANSIDE HBR    N/A     63  60  90 CALM      29.88F
VISTA            N/A     62  56  81 CALM      29.83F
CARLSBAD       CLOUDY    62  60  93 VRB3      29.86S
DEL MAR          N/A     62  59  91 CALM      29.88S
LA JOLLA SCRIP   N/A     61  60  95 SW2       29.86S
FALLBROOK        N/A     60  60 100 CALM      29.87S
ESCONDIDO        N/A     61  58  88 SW1       29.86S
SAN MARCOS       N/A     61  57  87 CALM      29.86S
POWAY            N/A     60  56  87 CALM      29.87S

$$

EAST SAN DIEGO COUNTY

CITY           SKY/WX    TMP DP  RH WIND       PRES   REMARKS
RAMONA         CLEAR     53  51  93 CALM      29.88S
SANTEE LAKES     N/A     58  55  87 CALM      29.85S
LA MESA          N/A     61  59  92 CALM      29.78F
JAMUL            N/A     57  55  92 CALM      29.83F
DESCANSO N       N/A     56  20  24 NE5       29.76F
CAMPO            N/A     50  28  42 NE6       29.91F

$$

ORANGE COUNTY AND THE LOS ANGELES BASIN

CITY           SKY/WX    TMP DP  RH WIND       PRES   REMARKS
JOHN WAYNE AP  MOCLDY    63  60  90 SE3       29.86S
LAKE FOREST FR   N/A     58  52  79 CALM      29.72F
HUNTINGTON BCH   N/A     62  60  93 W3        29.87S
LOS ALAMITOS   FAIR      61  59  92 CALM      29.85F
FULLERTON      MOCLDY    64  61  90 SE3       29.85S
LONG BEACH     CLEAR     63  58  83 S3        29.85S
L.A. AP        PTCLDY    63  59  87 W6        29.85S
L.A. DOWNTOWN  CLEAR     63  58  83 CALM      29.86R

$$

THE INLAND EMPIRE

CITY           SKY/WX    TMP DP  RH WIND       PRES   REMARKS
CORONA         CLEAR     61  55  81 W3        29.87R
CHINO          CLEAR     62  53  72 CALM      29.87S
ONTARIO        CLEAR     67  49  52 CALM      29.86S
SAN BERNARDINO FAIR      67  37  33 CALM      29.87S
RIVERSIDE AP   CLEAR     64  52  64 CALM      29.86S
MORENO VALLEY    N/A     64  46  51 CALM        N/A
MARCH ARB      CLEAR     55  40  57 CALM      29.87F
HORSETHIEF CYN   N/A     62  33  33 W3        29.82S
PERRIS           N/A     66  48  52 CALM      29.87S
HEMET EAST       N/A     64  26  23 CALM      29.86F
FRENCH VALLEY  FAIR      63  48  59 CALM      29.88S
TEMECULA         N/A     61  52  71 CALM      29.90F

$$

SAN BERNARDINO AND RIVERSIDE COUNTY MOUNTAINS

CITY           SKY/WX    TMP DP  RH WIND       PRES   REMARKS
BIG BEAR AP    CLEAR     45  16  31 CALM      30.14F
ANGELUS OAKS     N/A     59  21  23 CALM      29.68F
PINE COVE        N/A     64  -4   6 N3        29.78F

$$

SOUTHERN DESERT INCLUDING THE COACHELLA VALLEY

CITY           SKY/WX    TMP DP  RH WIND       PRES   REMARKS
PALM SPRINGS   CLEAR     80  34  19 SW5       29.68S
THOUSAND PALMS   N/A     86  28  12 NW18      29.62F
PALM DESERT      N/A     78  41  27 CALM      27.34S
THERMAL        CLEAR     86  24  10 NW10      29.62S
BLYTHE         CLEAR     85  24  11 VRB5      29.67S
IMPERIAL AP    CLEAR     80  26  13 S7        29.66R
EL CENTRO NAS  CLEAR     84  12   6 W13       29.67S
YUMA AZ        CLEAR     80  61  52 VRB3      29.68F

$$

UPPER DESERT

CITY           SKY/WX    TMP DP  RH WIND       PRES   REMARKS
VICTORVILLE AP CLEAR     68  30  24 CALM      29.90S
HESPERIA         N/A     69  30  23 W3        29.85S
PALMDALE       CLEAR     74  39  28 SW9       29.88F
LANCASTER      CLEAR     74  51  44 W20       29.86S
EDWARDS AFB    CLEAR     73  46  36 SW21      29.82F
DAGGETT        CLEAR     82  32  16 SW23G31   29.76S
29 PALMS N     CLEAR     79  10   7 W13       29.84F
NEEDLES        CLEAR     89  22   8 SW5       29.66S

$$

REGIONAL REPORTS

CITY           SKY/WX    TMP DP  RH WIND       PRES   REMARKS
SANTA BARBARA  CLEAR     56  55  97 W3        29.84R
SANDBERG       CLEAR     65  52  62 NW17G28   30.02F
LAS VEGAS NV   CLEAR     87  24  10 S10       29.68S
PHOENIX AZ     CLEAR     93  43  17 W6        29.73S
TIJUANA        FOG       61  61 100 CALM      29.89  VSB 1/16
ENSENADA NW      N/A     63  32  31 CALM      29.84F

$$

OFFSHORE ISLANDS

CITY           SKY/WX    TMP DP  RH WIND       PRES   REMARKS
CATALINA ARPT  NOT AVBL
SAN NICOLAS IS FOG       55  32  41 W18       29.87R VSB 3/4

$$

MARINE AND OFFSHORE BUOY REPORTS

STATION/POSITION SKY/WX   TEMP    WIND        PRES    VSBY  SWELL
                          AIR SEA DIR/SP/G                  HT/PER/DIR
                          (F)     (DEG/KT/KT) (MB)    (MI)  (FT/S/D)
TANNER BANKS               59 63  310/ 17/ 21 1011.8F         3/270/13
S CLEMENTE BASIN              64  280/ 10/ 12 1011.4F         5/300/ 8
SAN NICOLAS IS.               60                N/A           2/220/13
SO. S. ROSA ISLA           56 57  310/ 23/ 29 1010.7F         3/200/13
W. S. BARBARA CH           54 53  320/ 17/ 19 1011.5R         2/280/10
M. S. BARBARA CH           60 60  330/  8/ 10 1011.0R         3/240/ 6
S. MONICA BASIN            62 66   30/ 12/ 16 1010.1F         3/260/ 7
S PEDRO CHANNEL               65                N/A           2/210/11
CMP PENDLETON NS              66                N/A           2/230/18
OCEANSIDE OFFSHR              67                N/A           2/200/13
TORREY PINES OTR              67                N/A           2/210/18
SAN DIEGO BAY                 70              1011.7F
POINT LOMA SOUTH              66                N/A           2/210/13

$$





USA.gov is the U.S. government's official web portal to all federal, state and local government web resources and services.